Regional Weather Roundup
Issued by NWS

Home | Current Version | Previous Version | Text Only | Print | Product List | Glossary Off
Versions: 1 2 3 4 5 6 7 8 9 10 11 12 13 14 15 16 17 18 19 20 21 22 23 24 25 26 27 28 29 30 31 32 33 34 35 36 37 38 39 40 41 42 43 44 45 46 47 48 49 50

000
ASUS43 KMKX 190200
RWRWI

WISCONSIN REGIONAL WEATHER ROUNDUP
NATIONAL WEATHER SERVICE MILWAUKEE/SULLIVAN WI
900 PM CDT FRI APR 18 2014

NOTE: "FAIR" INDICATES FEW OR NO CLOUDS BELOW 12,000 FEET WITH NO
SIGNIFICANT WEATHER AND/OR OBSTRUCTIONS TO VISIBILITY.

WIZ001-002-006>008-014>016-023>028-190300-
NORTHWEST WISCONSIN

CITY           SKY/WX    TMP DP  RH WIND       PRES   REMARKS
SUPERIOR ARPT  MOCLDY    32  28  85 E8        30.33R WCI  25
ASHLAND        CLEAR     30  24  78 NE8       30.36F WCI  22
HAYWARD        MOCLDY    40  19  43 E5        30.30R
SIREN          CLOUDY    42  20  40 E6        30.26F
RICE LAKE      CLOUDY    43  23  44 E6        30.30R
LADYSMITH      PTCLDY    42  22  45 E7        30.32R
EAU CLAIRE     PTCLDY    46  25  43 E12       30.28R
MENOMONIE      PTCLDY    45  27  50 E9        30.27S
NEW RICHMOND   PTCLDY    44  25  47 E8        30.24F
OSCEOLA        PTCLDY    42  27  54 E5        30.26F
$$

WIZ003>005-009-010-017-018-190300-
NORTH CENTRAL WISCONSIN

CITY           SKY/WX    TMP DP  RH WIND       PRES   REMARKS
WOODRUFF       CLEAR     37  20  52 E3        30.34S
RHINELANDER    CLEAR     34  20  56 NE6       30.35S WCI  29
EAGLE RIVER    CLEAR     33  22  64 E6        30.35R WCI  27
LAND O LAKES   CLEAR     30  26  87 E3        30.36S
PHILLIPS       CLOUDY    37  15  40 E5        30.30F WCI  33
TOMAHAWK       CLEAR     35  15  44 CALM      30.32F
MEDFORD        CLEAR     40  21  45 E6        30.31S
MERRILL        CLEAR     36  19  50 CALM      30.33S
$$

WIZ029-030-035-036-043>047-190300-
CENTRAL WISCONSIN

CITY           SKY/WX    TMP DP  RH WIND       PRES   REMARKS
WAUSAU         CLEAR     38  21  50 E7        30.32R WCI  33
MOSINEE        CLEAR     37  21  52 E9        30.33F WCI  31
MARSHFIELD     CLEAR     41  24  51 E7        30.31R
STEVENS POINT  CLEAR     39  22  50 E6        30.33S WCI  35
WAUPACA        CLEAR     46  28  49 E13       30.35S
WAUTOMA        NOT AVBL
WISC RAPIDS    CLEAR     43  23  45 E6        30.33S
CAMP DOUGLAS   NOT AVBL
$$

WIZ011>013-019>022-031-037>040-048>050-190300-
NORTHEAST WISCONSIN

CITY           SKY/WX    TMP DP  RH WIND       PRES   REMARKS
ANTIGO         CLEAR     35  21  56 E6        30.35S WCI  30
STURGEON BAY   CLEAR     34  25  69 CALM      30.42R
GREEN BAY      CLEAR     37  29  72 E7        30.40R WCI  32
MANITOWOC      NOT AVBL
APPLETON       PTCLDY    39  30  70 E9        30.38R WCI  33
CLINTONVILLE   CLEAR     41  28  60 E7        30.37R
OSHKOSH        CLEAR     38  29  70 E10       30.37R WCI  31
$$

WIZ032>034-041-042-053>061-190300-
SOUTHWEST WISCONSIN

CITY           SKY/WX    TMP DP  RH WIND       PRES   REMARKS
LA CROSSE      CLEAR     51  26  37 E3        30.27S
SPARTA         CLEAR     46  26  46 E6        30.30R
VIROQUA        FAIR      44  29  56 E8        30.28R
BOSCOBEL       CLEAR     48  27  44 E3        30.29R
PRAIRIE DU CHI CLEAR     51  27  39 CALM      30.27R
PLATTEVILLE    FAIR      49  32  52 E10       30.29R
$$

WIZ056-057-062-063-064-067-068-190300-
SOUTH CENTRAL WISCONSIN

CITY           SKY/WX    TMP DP  RH WIND       PRES   REMARKS
BARABOO/DELLS  CLEAR     45  26  47 E6        30.30F
LONE ROCK      NOT AVBL
WATERTOWN      CLEAR     38  30  73 E12       30.35R WCI  30
MADISON        PTCLDY    47  30  51 E10       30.33R
MIDDLETON      FAIR      48  29  47 E8        30.32R
MONROE         CLEAR     47  30  51 E8        30.30R
JANESVILLE     CLEAR     43  34  70 E15       30.34R
$$

WIZ051-052-058>065-066-070>072-190300-
SOUTHEAST WISCONSIN

CITY           SKY/WX    TMP DP  RH WIND       PRES   REMARKS
MILWAUKEE      PTCLDY    34  28  79 NE7       30.39S WCI  28
WAUKESHA       NOT AVBL
MILWAUKEE/TIMM CLEAR     34  25  69 NE5       30.39F WCI  30
RACINE         CLEAR     34  28  79 N10       30.38F WCI  26
BURLINGTON     CLEAR     34  27  76 NE6       30.37R WCI  29
KENOSHA        CLEAR     34  27  75 NE6       30.37R WCI  29
FOND DU LAC    CLEAR     38  27  64 E8        30.38R WCI  32
SHEBOYGAN      CLEAR     32  26  78 NE5       30.40R WCI  27
WEST BEND      CLEAR     32  27  80 E6        30.39R WCI  26
JUNEAU         CLEAR     38  29  69 E15       30.37R WCI  30
$$

LSZ147-162-190300-
LAKE SUPERIOR

STATION/POSITION TIME  TEMP    WIND        PRES    WAVE
                       AIR SEA DIR/SP/G            HT/PER
                 (UTC) (F)     (DEG/KT/KT) (MB)    (FT/S)
DEVILS ISLAND    0100   30     130/  6/  8 1030.1S
PORT WING        0100   36     100/  4/  7 1027.4F
SAXON HARBOR     0100           CALM  /  3 1028.4F
$$

LMZ867-665-643>646-190300-
LAKE MICHIGAN

STATION/POSITION TIME  TEMP    WIND        PRES    WAVE
                       AIR SEA DIR/SP/G            HT/PER
                 (UTC) (F)     (DEG/KT/KT) (MB)    (FT/S)
NORTHPORT PIER   0100   33     130/  1/  2 1029.8R
SISTER BAY       0123   35        CALM       N/A
KEWAUNEE LAKESHO 0100   35      60/  3/  3 1029.8F
SHEBOYGAN LAKESH 0100   36      50/  6/  7 1030.0S
PORT WASHINGTON  0100   36      20/  3/  4 1029.5F
MILWAUKEE LAKESH 0100   35      20/  7/  9   N/A
KENOSHA   LAKESH 0100   36      30/ 14/ 16   N/A
$$

TC  - TEMPERATURE IN CELSIUS
VSB - VISIBILITY IN STATUTE MILES
WCI - WIND CHILL INDEX
HX  - HEAT INDEX




USA.gov is the U.S. government's official web portal to all federal, state and local government web resources and services.